RH
22 22 22 22 22 21 21 21 21 21 21 21 21 21 21 21 21 21 21 21 22 22 23 24 26 27 28 29 29 27 25 21 16 13 12 14 16 18 19 19 19 18 16 16 15 11 11 15 20 28 36 40 41 42 45 44 45 45 45 47 47 44 45 46 48 51 51 49 45 43 45 48 52 54 56 60 62 61 59 55 48 45 46 46 46 43 41 41
22 22 22 22 22 22 21 21 21 20 20 20 20 20 20 20 20 21 21 21 22 22 23 23 24 25 27 29 30 30 30 28 24 20 15 13 13 15 17 19 20 20 18 18 18 16 13 12 14 19 27 34 38 41 42 43 45 45 46 47 40 39 43 45 46 47 46 45 42 39 41 47 52 55 56 55 56 58 57 56 52 46 42 41 42 42 42 42
22 22 21 21 21 20 19 19 18 17 16 16 15 15 16 16 17 18 19 20 21 21 22 23 23 24 25 27 28 29 31 32 31 28 23 18 14 13 14 17 19 20 20 20 20 19 17 14 13 14 18 23 29 36 39 40 42 43 45 40 31 35 42 44 46 46 45 44 42 40 40 45 49 52 56 51 48 50 50 50 49 46 43 42 42 42 43 43
21 20 19 18 17 16 15 14 13 12 11 10 10 10 10 11 11 12 13 15 17 18 20 22 23 23 24 25 26 27 29 32 33 33 32 27 21 16 13 14 17 19 20 21 21 20 19 17 16 14 14 15 18 25 32 34 35 37 37 29 24 32 38 40 45 46 46 46 44 43 42 44 44 43 47 46 41 41 42 43 42 42 42 42 43 42 43 43
18 17 16 14 13 11 10 9 9 8 8 9 10 10 10 11 11 11 11 12 12 14 16 18 20 22 24 25 25 25 27 29 32 34 34 33 30 24 18 13 14 17 20 21 21 21 21 19 19 17 15 13 12 14 17 23 28 30 27 22 23 28 34 37 41 45 46 46 46 46 44 43 43 40 39 40 38 37 38 39 39 40 40 41 42 42 42 43
15 13 11 10 9 8 8 8 8 9 10 10 11 12 12 13 13 14 14 14 14 14 15 16 17 20 23 26 26 25 26 28 30 32 33 33 34 32 28 21 15 13 16 20 21 21 21 21 20 19 18 15 13 11 10 13 20 22 19 18 20 23 29 34 37 42 43 44 45 46 46 45 44 42 40 40 39 38 38 38 38 38 39 40 41 41 42 42
11 9 8 7 7 7 8 8 9 9 10 10 11 11 12 12 13 13 14 14 15 16 16 16 17 17 20 23 26 27 28 30 29 28 31 32 33 34 33 31 25 17 13 15 19 21 22 21 21 21 20 19 16 14 11 11 13 14 12 13 15 18 23 28 33 38 40 41 43 43 45 46 45 44 43 42 41 40 40 39 39 39 39 39 40 40 41 40
8 7 7 7 7 8 8 8 9 10 11 12 13 13 13 13 13 13 13 13 14 14 15 15 16 16 18 20 23 25 30 34 30 27 29 31 32 33 33 35 34 28 20 13 13 18 21 22 22 22 21 20 19 17 15 13 11 9 7 8 11 13 18 23 28 33 36 38 41 41 41 42 44 44 44 43 43 42 41 41 40 40 40 39 40 40 40 39
7 7 7 7 7 7 8 10 11 12 13 13 13 13 12 12 12 12 13 13 14 14 13 13 13 14 16 18 19 21 26 30 31 29 30 31 31 32 33 34 36 36 32 23 15 13 17 20 22 23 23 21 21 20 19 16 13 10 7 7 8 9 13 18 22 25 30 34 36 37 38 39 40 41 42 42 42 42 41 41 41 40 40 40 40 39 39 38
7 7 6 7 8 10 11 12 12 12 11 11 11 12 14 15 17 18 19 20 21 20 18 15 13 13 13 14 16 18 21 23 27 29 31 33 32 32 33 34 36 37 37 35 27 18 14 16 22 25 25 24 22 21 21 19 16 14 11 9 7 7 9 11 14 18 22 25 28 30 32 34 35 35 36 38 39 40 40 40 40 40 39 39 39 38 38 37
7 6 7 10 11 13 12 11 10 11 12 14 16 18 20 21 21 22 23 26 29 29 26 23 20 17 15 15 13 16 20 20 21 25 28 32 35 35 34 35 37 37 38 38 37 32 23 18 19 22 26 26 25 23 21 20 18 17 15 12 10 7 7 7 8 11 14 16 20 23 26 27 28 27 27 31 35 36 37 37 37 37 37 37 37 37 35 33
7 8 11 13 12 11 11 11 13 16 18 19 20 21 20 19 19 19 20 23 29 33 33 31 27 22 20 19 13 13 19 20 19 20 23 27 33 36 36 36 37 38 38 38 39 40 37 29 22 20 23 24 26 27 24 22 21 19 17 15 13 10 7 6 6 7 8 10 12 16 19 18 18 19 20 25 29 30 31 32 32 32 32 33 33 32 30 29
8 11 14 13 11 11 13 16 19 20 20 19 17 17 17 19 21 22 22 23 29 37 36 28 21 19 19 17 13 14 18 23 24 20 18 22 26 32 37 38 39 40 39 39 39 41 43 40 32 24 21 21 26 29 26 24 22 20 19 17 15 13 10 8 6 6 6 7 8 10 11 9 11 14 16 20 22 23 24 25 26 25 25 26 25 25 24 23
11 14 13 11 11 15 19 21 22 21 18 17 17 18 20 24 28 30 28 27 33 38 30 19 14 15 16 13 17 23 25 29 32 28 20 18 21 25 32 38 40 41 41 41 40 40 43 44 41 35 27 24 26 28 28 27 25 23 21 19 17 14 12 10 9 6 6 7 7 8 7 5 8 10 11 13 15 17 18 19 20 19 19 20 19 19 18 17
14 15 11 11 16 20 23 23 23 23 22 22 23 24 26 31 37 38 36 36 38 33 22 15 14 14 13 13 19 25 27 31 35 35 28 19 18 20 25 33 38 41 42 43 42 41 42 44 44 42 36 31 29 30 29 28 28 26 22 20 18 15 12 12 12 8 6 6 7 7 6 4 6 7 7 8 10 12 13 14 15 15 15 15 15 15 15 13
17 14 11 14 21 25 25 27 27 28 30 32 33 35 37 41 44 41 41 45 41 31 21 17 17 16 14 15 18 21 22 25 28 33 34 26 20 18 20 27 34 39 41 42 44 42 42 44 45 46 44 38 34 33 31 29 29 27 24 21 18 17 14 13 14 12 9 7 7 7 5 5 5 6 6 6 8 9 9 11 11 12 12 12 13 12 12 12
17 13 12 18 26 29 29 31 31 33 36 39 44 48 47 43 37 33 41 51 46 33 25 20 19 18 17 19 22 24 23 21 22 25 30 30 25 20 18 21 28 35 38 40 43 44 43 44 46 47 46 43 38 37 36 30 25 22 21 21 19 18 16 15 14 15 13 10 8 7 5 5 5 5 6 6 7 8 8 9 9 10 10 10 11 10 10 10
17 12 14 22 30 33 33 33 34 37 40 43 49 49 43 33 26 24 35 55 55 40 32 29 27 25 23 27 31 31 28 24 22 20 22 27 28 24 19 18 22 29 35 38 41 44 44 44 46 48 47 45 40 37 33 25 18 16 17 19 20 19 18 16 15 16 17 14 11 9 7 6 6 5 6 6 6 7 7 8 8 8 8 8 8 7 7 7
16 13 17 25 34 36 35 36 38 40 40 44 46 39 32 26 25 22 30 60 70 53 42 38 37 36 35 39 38 32 29 26 21 17 17 21 26 26 23 19 19 23 30 36 39 42 45 45 45 45 44 41 36 32 28 23 20 19 19 22 22 21 20 18 17 17 19 19 16 12 10 8 7 6 6 6 6 6 6 6 6 6 6 6 5 5 5 6
17 15 20 30 38 38 39 41 44 42 40 43 40 34 32 30 29 24 31 67 89 73 57 51 46 46 52 54 45 36 33 29 21 17 14 14 20 25 25 22 19 19 26 34 37 40 45 46 44 40 37 35 34 34 33 29 28 26 24 26 26 24 22 20 18 17 19 21 19 16 15 13 11 8 7 6 6 6 6 5 5 5 5 4 4 4 5 7
18 17 24 36 40 41 43 45 47 44 43 45 42 39 40 39 39 31 29 60 93 92 77 66 57 56 62 60 52 45 39 31 26 25 18 11 14 20 24 24 21 18 22 30 33 35 43 45 40 38 38 40 42 42 41 37 33 31 29 28 28 26 23 22 20 18 18 20 21 19 18 17 15 12 10 7 7 6 6 5 5 5 4 4 4 4 6 8
19 20 30 41 44 45 45 48 50 45 47 52 49 46 46 55 62 46 28 43 81 103 94 80 69 60 59 57 58 57 45 37 37 36 25 12 11 15 21 24 22 19 18 24 29 32 40 41 38 39 42 45 46 45 44 42 38 35 33 31 30 28 25 23 21 18 18 19 21 21 19 20 19 17 13 9 7 6 6 6 5 5 4 4 4 4 7 8
21 24 36 44 46 48 48 52 52 46 51 56 56 57 60 77 82 56 33 38 70 96 92 82 72 58 55 59 64 60 51 44 46 48 34 16 12 13 17 22 22 21 18 19 27 32 37 39 40 43 44 45 46 47 46 44 41 37 36 34 31 30 27 24 21 19 17 17 20 21 21 21 21 19 15 12 8 6 7 6 5 5 4 4 4 5 7 9
23 27 39 47 50 53 53 56 54 48 51 56 62 69 74 87 81 51 35 42 69 89 82 73 68 60 61 65 65 60 56 52 55 61 46 24 18 15 15 20 21 21 18 19 25 31 35 39 43 44 44 45 46 47 47 45 41 37 37 36 33 32 28 25 23 20 17 17 18 20 21 20 20 19 15 13 10 7 6 6 5 5 4 5 4 5 7 7
24 29 40 49 54 58 57 57 55 47 46 52 63 72 78 85 74 48 37 45 67 83 80 73 68 67 69 69 67 62 59 58 60 62 48 32 25 20 18 18 20 22 18 18 24 28 32 38 43 44 44 46 46 46 46 44 41 38 37 37 36 34 30 27 25 22 19 17 16 18 19 18 18 17 16 15 12 8 6 6 6 5 5 5 4 6 7 6
26 30 41 51 55 60 61 59 54 43 41 47 54 63 70 76 77 62 43 42 58 69 70 71 71 74 76 71 68 66 63 61 60 55 44 35 27 24 28 22 18 22 18 17 22 26 30 36 42 44 44 46 46 46 45 44 42 40 39 38 37 35 32 30 27 25 21 17 16 17 17 16 16 16 15 15 14 11 7 6 6 5 5 5 5 6 6 6
27 32 43 52 55 59 62 60 50 39 38 39 42 49 48 54 75 76 57 49 54 56 59 66 73 75 74 69 66 72 73 63 58 52 39 35 30 28 35 30 19 20 18 16 22 26 28 35 41 42 43 45 45 45 44 44 42 40 40 41 39 37 34 33 32 28 23 19 18 17 16 15 15 15 15 16 15 12 8 6 6 5 6 5 6 7 6 6
28 34 46 54 56 60 61 55 44 37 38 37 38 40 33 38 55 66 71 66 52 50 55 61 65 64 65 67 70 83 88 70 57 54 41 32 31 29 37 38 25 19 19 17 22 28 27 32 40 41 42 44 44 44 44 45 42 42 46 45 42 41 39 37 36 32 26 22 19 16 15 15 13 14 17 16 15 13 9 7 6 6 6 6 7 7 6 6
29 37 49 57 59 62 60 49 40 40 43 41 42 41 34 35 36 42 64 72 67 68 63 55 56 59 63 68 78 95 101 83 61 52 44 36 34 35 40 42 34 24 22 20 22 25 24 28 36 38 39 42 43 45 47 47 44 46 52 50 46 44 42 40 39 35 30 24 19 16 15 13 12 14 16 15 13 11 10 8 7 6 6 7 7 7 7 6
30 40 52 60 63 66 61 47 39 44 51 48 48 48 43 40 35 35 47 63 82 87 74 64 60 62 67 72 87 101 102 96 73 47 45 49 46 47 47 47 46 36 26 23 23 22 21 25 31 35 36 40 44 46 49 49 48 52 56 54 50 48 44 43 41 37 32 25 19 17 15 14 13 12 13 12 10 10 12 10 8 7 7 7 7 7 7 6
31 42 54 62 66 71 66 52 40 43 53 56 54 54 53 49 46 44 42 52 70 74 76 85 79 74 79 82 95 104 100 103 88 52 47 61 59 56 60 59 56 46 32 26 23 21 21 22 28 34 34 38 43 47 50 51 50 55 59 56 54 52 48 46 43 38 32 25 20 18 17 16 13 11 11 10 12 14 15 13 10 8 8 8 8 7 7 7
32 43 56 62 68 76 74 62 49 42 48 58 62 62 61 59 57 57 54 52 54 53 62 75 79 85 92 93 99 105 100 102 96 64 47 62 68 62 66 69 62 50 35 26 22 21 20 21 27 31 31 36 42 45 50 53 53 56 60 59 56 53 49 45 42 36 29 23 22 20 18 16 12 9 11 12 14 16 15 14 12 9 10 10 9 8 7 8
31 43 57 62 69 80 79 71 62 49 46 55 66 70 68 66 68 70 69 63 57 55 55 57 65 74 81 92 102 103 101 101 99 76 51 64 79 72 72 76 66 49 33 25 23 21 20 22 25 28 30 35 40 44 47 48 49 52 56 54 50 47 43 40 37 31 27 24 23 22 19 16 12 10 11 12 13 15 16 16 13 11 12 11 10 11 12 12
31 42 56 61 66 75 77 73 68 59 53 56 64 69 71 73 77 81 81 79 72 69 66 63 69 71 71 88 101 101 102 101 97 79 56 66 83 81 82 80 63 47 34 27 23 21 20 21 25 28 30 34 37 41 44 46 48 49 53 53 48 42 37 34 34 30 27 25 22 22 20 15 13 11 11 12 14 16 17 17 15 13 13 12 11 14 18 17
29 38 53 59 62 68 71 70 68 62 59 63 65 65 70 73 79 87 90 92 91 89 87 82 83 86 83 90 98 100 103 100 94 75 55 65 82 86 89 78 59 46 36 29 24 21 21 20 25 29 29 33 37 41 48 55 59 57 57 58 50 43 39 35 34 30 27 26 23 21 19 14 13 12 12 13 15 17 18 19 16 13 12 12 11 13 15 14
27 33 47 56 59 65 68 68 66 61 61 69 68 66 73 75 77 86 91 96 101 100 100 97 95 96 90 82 82 92 98 94 88 69 52 66 85 92 92 77 57 45 35 30 25 21 21 21 22 25 27 32 37 44 51 57 61 60 56 53 46 44 44 40 36 33 30 28 24 21 19 16 14 13 13 14 15 17 20 20 18 14 13 12 12 12 12 11
29 28 38 50 57 66 71 70 72 70 66 67 63 63 77 81 79 85 91 98 102 100 101 101 99 100 92 75 68 82 92 89 85 69 51 66 87 89 87 74 55 45 35 30 26 21 22 22 21 22 25 30 38 49 59 62 63 60 52 48 49 49 47 43 39 35 32 28 24 21 19 17 15 14 13 14 15 17 19 21 20 16 13 13 14 13 11 11
32 27 33 43 54 68 71 71 83 85 71 58 50 54 72 83 84 87 90 98 101 99 101 100 100 102 93 75 64 75 88 89 91 77 52 64 87 82 75 65 51 44 37 30 28 24 22 23 22 22 24 31 40 49 61 66 65 61 55 53 54 50 45 43 40 35 32 28 24 22 20 18 16 14 14 14 15 17 19 22 21 18 15 15 15 13 12 12
32 31 32 36 49 64 67 73 89 86 64 51 49 57 73 84 89 90 90 97 101 100 100 100 101 102 97 81 61 66 88 92 91 79 53 62 84 77 67 60 48 42 36 32 29 25 23 23 23 24 26 34 43 45 52 60 60 60 60 57 55 50 45 42 39 35 31 28 25 22 19 18 16 15 14 15 16 18 21 22 21 19 16 15 16 14 13 14
32 37 35 32 43 57 63 73 82 72 58 56 60 71 86 93 98 98 96 100 101 100 101 100 100 100 101 92 63 55 79 85 79 72 55 59 81 77 63 58 50 42 36 34 32 27 25 23 23 25 27 32 38 40 46 54 55 55 53 51 52 52 48 43 38 34 30 28 26 23 19 17 17 17 16 16 17 19 22 23 22 20 18 16 17 15 14 15
33 40 39 33 36 47 54 62 68 64 60 60 61 71 87 98 102 102 101 101 98 98 101 100 101 100 101 100 72 51 68 76 67 61 51 56 77 77 62 56 51 43 38 34 32 29 26 23 23 24 24 27 31 36 48 55 54 52 49 46 48 49 47 41 35 32 30 28 26 23 20 18 18 18 18 17 18 19 22 24 24 22 20 18 16 16 15 15
34 38 41 37 33 37 45 52 60 66 65 62 63 69 79 89 98 101 100 100 98 98 97 94 100 101 98 102 82 52 60 75 66 54 46 53 73 75 61 55 50 42 37 35 34 32 27 23 22 22 21 24 29 34 43 53 56 58 55 51 49 46 41 37 33 31 31 29 26 23 20 19 19 19 20 19 18 19 22 25 26 24 21 19 17 17 16 16
31 34 39 42 35 33 39 46 58 74 78 73 74 80 79 77 89 100 100 101 102 98 93 91 99 103 98 102 89 54 49 64 59 46 40 48 69 73 60 54 50 41 34 36 37 33 28 24 22 22 20 20 26 32 40 52 59 58 54 52 49 43 37 36 36 35 34 31 27 24 22 21 20 20 21 21 18 18 22 25 26 25 22 20 18 17 18 21
25 29 37 42 37 33 35 42 58 78 87 84 81 84 79 71 83 100 100 98 100 101 100 95 94 100 100 101 93 66 49 49 43 35 34 44 62 67 60 53 48 40 34 36 39 35 32 29 23 21 20 18 23 30 36 45 48 45 43 45 45 45 44 42 40 37 34 31 28 26 24 23 23 22 21 22 18 18 23 26 26 25 23 21 19 19 22 24
25 25 33 39 39 38 33 37 57 74 79 82 78 74 72 70 83 99 99 97 99 99 97 88 87 97 99 98 95 77 52 37 30 27 27 39 55 57 53 50 45 43 42 40 40 39 37 33 25 20 19 17 18 23 26 32 35 37 42 45 47 49 48 44 40 36 31 30 29 27 25 26 28 26 23 22 19 19 23 27 27 25 23 20 20 22 25 23
32 24 28 33 39 43 34 30 50 68 72 73 72 72 74 73 82 96 98 97 95 81 66 72 93 99 89 91 101 92 61 30 20 23 24 32 46 49 44 45 47 47 46 42 41 41 39 33 26 21 18 16 17 18 21 27 34 40 44 46 49 51 49 46 41 36 32 30 29 27 28 31 32 32 31 25 20 20 24 27 27 25 24 22 22 24 24 25
43 28 22 26 34 42 39 30 37 59 73 72 70 77 79 70 77 96 100 98 94 74 58 75 100 98 86 90 101 102 84 46 17 16 23 27 36 41 40 43 49 47 44 44 43 40 38 33 27 23 21 18 18 17 19 25 31 38 43 45 47 47 48 44 38 33 32 30 28 27 31 35 35 41 44 35 24 23 26 28 29 26 24 23 22 25 27 32
53 39 23 21 27 35 41 36 31 45 68 75 74 83 87 74 71 84 93 96 96 84 79 96 101 89 89 100 100 101 101 75 34 13 15 25 30 33 37 38 43 46 42 41 42 37 35 34 29 26 24 21 18 16 17 21 25 33 42 46 46 44 42 39 35 34 32 30 30 29 32 39 44 51 55 44 32 31 32 32 31 29 27 26 26 29 32 33
58 53 35 22 23 30 38 42 36 36 54 70 72 77 87 85 79 85 92 94 96 87 80 96 103 90 92 104 101 98 99 90 65 29 10 19 26 27 33 31 31 38 37 36 37 34 33 35 31 27 24 22 19 15 15 19 22 28 35 40 43 42 40 37 36 35 33 32 32 32 36 45 51 57 61 50 37 38 42 38 34 33 31 30 31 33 33 30
59 59 50 32 23 26 35 43 44 37 46 68 81 82 88 91 91 96 93 86 93 90 71 76 94 93 93 101 100 100 98 88 73 41 11 14 22 22 27 26 22 28 30 31 33 29 33 45 44 36 29 23 19 16 15 16 19 25 33 37 40 40 40 39 37 36 35 34 32 34 39 45 49 56 64 58 43 40 48 50 45 42 38 35 35 34 31 32
60 59 58 45 30 24 29 38 44 41 43 62 84 90 88 91 95 99 98 92 89 76 54 58 78 80 81 94 99 98 87 62 43 30 14 11 17 20 22 23 23 25 26 29 31 26 34 55 61 49 36 25 20 17 14 15 23 31 36 37 36 35 34 35 35 36 35 34 33 34 38 44 51 57 66 67 54 44 49 56 55 50 46 44 42 38 38 40
65 61 61 56 42 28 25 32 40 44 43 47 66 80 80 83 91 94 98 94 68 40 30 47 74 78 64 62 66 62 48 30 21 21 17 13 15 17 19 22 25 26 27 29 27 24 38 62 66 52 37 28 22 18 19 23 28 28 28 31 33 34 35 36 37 37 36 35 35 33 36 50 61 64 68 69 63 54 52 55 56 55 54 51 46 44 45 43
Wind_Speed
36 37 38 39 41 42 43 44 45 46 47 49 50 51 52 52 53 53 54 54 55 56 57 59 61 62 63 64 64 65 65 66 67 68 68 69 69 68 67 66 64 64 64 63 62 62 62 62 63 63 63 63 63 62 61 61 60 59 59 60 61 60 59 56 52 48 45 41 37 34 32 30 32 33 33 34 33 32 31 30 30 30 31 31 31 31 31 30
36 37 39 40 41 42 44 45 46 47 48 49 50 51 52 53 54 54 55 55 55 56 56 57 59 61 62 64 65 65 66 66 68 69 69 69 70 70 69 68 67 66 65 64 64 64 63 63 63 64 64 65 65 64 63 63 62 62 61 62 63 60 58 56 52 50 47 44 40 36 32 32 33 34 34 34 34 34 32 32 31 31 31 31 32 32 33 32
36 37 39 40 42 43 44 45 46 47 48 49 50 51 52 53 54 55 55 56 56 56 56 56 57 59 60 62 64 65 66 66 67 68 69 70 71 70 70 70 69 69 67 67 66 65 65 64 64 64 65 65 65 65 65 65 64 64 64 64 63 60 59 56 54 52 49 46 42 37 34 34 34 35 36 36 35 35 33 33 33 32 33 33 33 34 34 33
37 38 40 41 42 43 44 45 46 46 47 47 48 48 49 50 52 53 54 55 56 57 57 56 56 57 58 60 62 64 65 66 66 68 69 70 71 71 71 71 71 71 70 69 68 67 66 66 65 65 65 65 65 66 66 66 65 65 65 64 61 60 60 58 55 53 50 47 44 40 37 37 36 36 37 37 37 36 34 34 34 34 34 34 35 35 35 34
38 39 41 42 43 43 44 44 44 44 44 43 44 44 45 46 47 49 50 52 53 55 56 56 56 56 56 58 60 62 64 65 66 67 68 69 70 71 71 71 71 72 72 72 70 69 67 67 67 66 66 66 65 66 65 65 66 66 65 62 61 61 61 59 56 54 52 49 47 43 41 40 39 39 39 39 38 37 35 35 35 35 35 36 37 37 36 36
39 40 40 41 41 41 41 41 40 40 39 39 39 39 40 41 42 43 44 46 48 50 52 53 55 55 55 56 58 60 61 62 65 66 67 68 69 70 70 71 72 72 73 73 72 71 69 69 68 67 67 66 66 65 64 64 66 66 64 61 61 61 61 59 57 56 54 51 49 46 44 43 42 42 43 41 40 39 37 36 36 36 36 38 38 38 38 39
39 39 39 39 39 38 38 37 36 36 36 37 37 38 39 40 40 41 42 43 44 46 48 49 51 52 53 53 55 57 58 60 64 65 66 67 68 69 69 70 71 72 73 73 73 72 71 70 69 68 68 67 66 65 64 65 65 65 62 61 61 61 61 59 57 57 55 53 51 47 47 47 46 46 46 44 43 42 40 38 38 38 37 38 39 40 40 40
37 37 36 36 36 36 35 35 36 36 37 38 39 39 40 40 40 41 41 42 43 45 46 48 49 50 50 51 52 53 55 58 62 64 64 65 67 68 68 69 69 71 73 73 73 73 72 72 71 70 69 68 67 66 65 65 65 64 62 60 60 61 61 59 58 57 56 54 52 50 49 49 48 48 49 47 45 44 43 41 40 40 40 40 40 41 41 41
35 35 35 35 35 35 35 36 37 37 37 38 38 39 39 40 40 40 41 42 43 44 45 47 48 49 49 50 50 50 53 56 59 62 63 62 64 66 67 68 67 69 71 73 73 73 73 72 72 72 70 69 68 67 66 65 64 63 61 61 60 60 60 60 58 57 56 55 53 52 51 51 50 50 51 50 47 46 45 44 42 42 43 42 42 43 43 44
34 34 34 34 35 36 36 36 36 35 35 36 37 38 40 42 43 44 44 45 46 46 46 46 47 48 48 50 50 49 53 56 56 59 61 60 62 64 65 66 66 66 68 70 72 72 72 72 72 72 72 70 69 68 67 66 64 62 62 62 61 61 60 59 57 56 56 55 54 53 53 52 51 51 53 51 49 48 47 47 45 44 44 45 45 45 45 45
33 33 33 34 34 35 34 33 33 34 35 37 39 41 43 45 46 47 47 48 49 49 49 48 48 48 48 49 48 50 55 55 54 56 58 59 59 61 62 63 63 64 65 67 69 71 71 71 72 72 72 71 70 69 67 66 64 63 64 63 62 62 60 58 55 54 54 54 54 53 53 53 52 52 53 52 50 49 48 48 48 46 45 46 47 46 46 46
32 32 33 33 32 32 31 32 33 35 37 39 41 43 44 45 47 48 49 49 49 50 49 48 48 48 48 48 47 52 56 55 54 55 57 58 57 58 59 60 61 61 63 65 66 68 69 70 71 71 71 71 70 69 68 66 65 65 64 64 63 62 62 59 54 52 51 51 50 51 53 53 53 53 53 53 51 49 49 49 50 48 47 47 48 48 48 47
31 32 32 31 30 30 32 33 35 37 39 41 42 43 44 45 48 50 51 50 49 48 47 46 46 46 47 45 46 52 55 53 54 54 56 56 55 55 57 58 58 59 61 63 64 65 67 69 70 70 71 70 69 69 68 66 66 65 64 64 63 63 63 59 55 52 49 48 47 47 50 51 51 52 52 52 51 50 49 49 50 50 48 48 48 48 47 46
32 31 30 29 29 32 34 35 36 38 40 42 43 44 45 46 48 50 51 49 48 47 45 43 41 41 42 40 41 46 49 51 52 53 55 55 54 55 56 56 56 56 58 60 62 63 64 66 68 69 70 69 69 68 68 67 66 65 65 65 63 63 63 60 56 53 50 48 45 44 47 48 47 48 49 49 49 48 48 48 49 49 48 47 46 46 45 44
32 30 28 28 31 34 35 36 37 39 42 43 44 45 46 48 49 50 50 48 46 44 42 39 36 37 36 35 37 41 43 46 49 51 54 55 55 55 55 56 55 54 55 58 60 62 63 64 65 67 68 69 69 68 68 67 66 66 66 65 63 62 62 59 56 55 51 49 46 44 47 46 44 44 45 45 45 45 45 45 46 47 46 45 44 43 41 41
31 29 27 29 33 35 36 37 39 41 43 44 45 46 47 49 49 49 47 45 43 42 41 39 37 36 34 34 38 40 41 44 47 49 52 55 56 55 55 55 54 54 54 56 59 61 62 62 63 65 66 68 68 67 67 68 67 66 66 65 63 62 62 59 57 55 53 51 48 46 47 47 44 43 42 41 41 41 41 41 42 42 42 41 41 38 37 38
30 27 28 31 34 36 37 38 40 43 44 45 46 47 48 48 46 45 44 43 41 40 40 39 38 37 35 36 38 40 42 44 46 48 51 55 56 56 55 55 54 54 54 56 58 59 60 61 62 63 65 67 67 66 67 68 68 67 65 64 63 62 62 59 56 55 54 53 50 48 49 49 45 43 42 40 38 38 38 37 37 37 37 37 36 34 34 35
29 27 28 32 35 37 38 39 41 44 46 47 47 46 45 43 42 42 43 42 41 40 40 38 37 37 36 36 38 40 41 42 43 47 51 55 56 57 56 55 55 54 54 55 57 58 60 61 61 62 64 66 67 67 67 67 66 64 64 64 64 63 62 61 57 55 54 52 51 50 51 51 47 44 42 40 38 36 35 34 34 33 32 32 31 30 30 30
29 27 29 33 35 37 38 39 42 45 46 47 46 44 42 40 40 41 43 42 40 40 39 37 36 35 34 35 37 39 40 39 40 44 51 55 57 58 56 55 55 54 54 55 56 58 59 60 62 63 64 65 66 66 66 64 63 63 64 65 65 63 61 59 56 54 53 52 51 51 51 51 48 45 43 40 37 35 34 33 32 29 28 28 28 27 27 25
28 27 30 33 35 37 38 41 44 46 46 46 44 42 41 40 40 41 42 41 39 39 38 37 35 33 33 35 37 39 38 37 37 38 47 55 58 59 58 56 56 56 55 55 55 57 58 60 62 62 61 61 62 63 63 63 63 64 64 64 64 62 60 57 53 52 51 51 51 51 50 50 48 45 43 40 38 36 34 32 30 28 26 26 26 25 24 22
28 27 31 34 35 37 39 42 45 45 45 45 42 41 42 41 40 41 40 36 36 37 35 33 32 30 32 34 36 38 37 36 34 35 41 51 57 59 59 57 56 56 54 53 55 56 58 60 60 58 57 57 59 60 60 61 62 62 62 62 62 61 59 55 50 49 50 51 51 51 50 49 48 45 43 42 40 37 34 31 28 27 27 27 27 25 22 21
27 28 31 34 36 38 40 43 44 44 45 44 42 42 43 43 41 40 39 31 30 33 30 29 28 27 29 32 34 36 35 35 33 34 38 46 55 59 60 59 57 55 53 54 56 57 58 58 56 56 57 57 57 58 58 59 60 60 60 61 61 59 57 54 49 48 49 50 51 51 51 49 47 45 43 43 41 38 35 31 30 29 28 28 27 24 21 21
27 28 31 34 36 38 42 44 44 44 45 43 42 42 44 44 41 39 37 30 27 28 26 25 25 25 28 30 32 32 32 33 32 34 37 41 51 58 61 61 59 56 55 56 56 56 56 56 56 57 58 57 56 57 57 58 59 59 59 59 59 57 56 54 50 47 49 50 50 51 51 50 47 46 45 44 43 41 37 35 33 32 30 29 27 23 22 23
27 29 32 34 36 39 43 44 43 44 44 43 41 42 44 43 38 36 35 28 24 25 24 23 23 24 27 27 28 27 28 31 30 31 35 36 43 55 61 62 61 59 57 54 53 53 54 56 57 56 56 56 56 57 57 58 58 58 57 57 58 56 54 52 48 45 46 48 49 50 51 51 49 48 47 46 45 43 40 37 36 33 32 30 26 22 22 24
28 30 32 35 36 40 43 43 42 43 43 41 41 42 43 41 36 34 33 26 21 22 22 22 23 23 24 23 23 23 26 30 28 28 33 33 37 49 58 62 62 60 56 53 52 53 54 55 55 54 55 56 56 57 57 57 57 57 56 56 56 54 52 51 47 44 45 48 49 50 51 52 50 49 48 46 46 44 41 39 36 34 32 30 25 21 24 26
29 30 33 34 36 40 43 42 41 41 40 40 41 42 43 41 36 33 31 25 20 20 20 20 21 21 21 20 20 22 25 28 25 26 30 32 35 43 54 60 62 59 55 53 53 54 55 54 53 53 54 54 54 55 55 55 56 55 54 53 54 53 52 50 47 44 46 48 49 49 50 51 50 50 48 47 46 44 42 40 37 35 33 30 24 23 26 25
29 31 33 34 36 40 42 41 40 39 38 38 40 42 43 42 39 35 31 25 22 21 20 20 20 19 18 18 19 21 25 26 22 23 28 31 33 41 50 56 60 59 56 55 55 54 54 54 54 53 53 53 53 53 53 54 55 53 51 51 52 52 51 50 46 44 45 47 48 48 49 50 50 49 48 46 46 45 43 41 38 36 34 29 24 25 27 25
29 30 33 34 37 40 41 40 39 37 36 37 39 40 40 40 39 37 31 26 24 22 20 19 18 17 16 17 19 21 23 25 20 19 24 28 32 40 48 53 57 58 56 55 54 52 53 54 53 53 52 52 51 50 51 53 53 52 50 50 51 51 50 48 45 44 45 47 49 50 50 50 50 49 48 47 46 46 44 41 38 36 33 28 24 26 27 25
29 30 32 34 37 39 39 38 38 36 35 36 37 38 37 35 36 35 31 27 24 22 21 20 17 15 15 17 20 21 22 24 20 17 20 23 29 38 47 53 56 57 56 54 53 53 53 54 52 52 52 51 50 50 51 53 52 51 49 50 50 50 49 47 45 44 45 48 50 51 51 51 51 50 49 49 48 46 43 40 38 35 31 27 25 27 27 25
30 30 32 34 36 38 38 37 37 36 36 35 36 36 35 33 33 33 32 29 25 23 22 20 19 17 17 18 20 22 23 23 21 16 17 19 26 37 45 51 55 55 55 54 54 55 54 53 53 52 51 50 51 51 52 52 52 51 49 49 49 48 48 47 45 45 46 49 50 50 50 50 51 50 49 48 45 42 41 39 37 33 30 27 27 29 27 25
30 30 31 32 35 37 37 36 36 37 37 36 35 35 35 33 33 32 32 31 27 25 23 21 21 20 20 20 21 23 25 23 20 15 16 18 26 36 42 49 53 54 55 56 55 54 53 53 53 52 51 52 51 51 51 52 52 51 50 49 48 47 47 45 44 46 48 49 50 49 49 50 51 48 47 46 43 41 40 37 35 31 27 27 27 28 27 25
29 29 30 31 33 36 37 35 35 36 37 37 35 34 34 33 33 32 31 30 29 27 25 22 22 22 22 23 23 23 24 21 19 16 15 19 27 36 42 47 51 53 55 55 54 53 53 52 52 52 52 52 51 51 51 52 53 52 51 50 49 48 47 46 46 47 48 50 51 49 49 51 50 46 45 46 44 42 39 36 33 29 27 27 27 26 26 25
29 29 29 30 32 35 36 36 35 35 36 37 36 34 33 33 33 32 30 29 28 26 25 24 23 23 22 22 21 21 19 18 16 14 14 21 28 36 41 45 50 52 54 54 53 53 52 52 53 53 52 52 51 51 52 53 53 52 52 52 51 50 50 48 48 48 49 51 50 49 49 50 47 44 45 45 43 41 38 34 32 30 29 28 26 26 26 26
30 29 29 29 30 33 35 36 36 35 35 36 36 35 35 34 33 33 31 29 27 25 24 23 23 23 23 21 18 17 16 15 14 11 13 23 31 36 40 44 49 52 52 52 52 51 50 51 52 52 52 51 50 49 49 49 50 51 51 51 51 51 50 49 49 49 50 52 50 49 49 48 45 44 43 43 42 40 38 35 33 33 33 32 31 31 30 29
30 28 29 29 30 33 36 37 37 36 35 35 35 35 36 36 35 35 34 31 30 27 24 24 23 23 23 22 18 15 12 12 10 7 11 25 33 36 39 43 49 51 51 51 50 49 47 47 48 49 50 50 49 49 49 48 48 49 50 50 50 48 47 46 47 48 50 52 50 49 48 46 44 43 41 41 42 40 38 37 36 36 36 35 35 35 34 32
31 29 28 29 30 32 35 38 38 37 35 34 35 36 37 37 37 37 37 35 35 32 28 25 24 23 23 21 18 12 8 7 6 5 11 27 35 37 38 43 49 50 50 49 48 47 46 45 46 48 49 49 48 48 48 48 47 48 49 50 48 47 46 44 45 47 49 51 49 48 47 46 44 43 41 41 41 40 39 37 36 36 35 36 36 35 34 31
33 30 29 29 30 31 34 37 39 38 36 34 35 36 37 37 37 37 38 37 38 37 34 30 25 25 26 23 16 8 3 3 4 4 12 29 38 38 39 44 48 49 49 48 46 45 44 43 45 46 46 47 47 46 46 46 46 47 48 49 48 48 47 45 45 48 49 50 49 47 47 46 44 42 40 39 40 40 39 36 36 36 36 35 35 34 32 28
33 32 30 29 30 30 32 35 37 38 37 35 35 36 37 37 37 36 36 37 39 39 39 34 27 26 28 25 17 7 1 0 3 5 13 30 39 38 41 46 49 49 48 47 45 44 43 41 42 44 44 43 44 46 46 45 45 45 46 47 48 48 48 47 47 48 48 49 48 46 46 45 44 42 38 37 39 39 38 37 37 37 36 35 34 33 31 28
33 34 32 30 30 30 31 33 35 36 37 36 36 37 37 37 36 35 35 37 39 40 41 38 29 26 29 29 21 8 1 3 3 5 14 31 39 39 42 47 48 48 47 46 44 43 42 40 40 42 41 41 43 45 46 46 47 46 46 46 46 47 47 47 47 48 48 48 47 45 44 44 44 41 38 36 37 38 37 37 37 36 36 35 34 32 30 27
33 34 33 31 30 30 31 32 34 36 37 37 36 36 38 38 36 34 34 36 38 39 41 41 32 26 27 31 26 12 3 5 4 7 16 31 39 39 43 48 48 48 47 45 44 42 41 39 38 39 39 40 43 46 45 44 46 46 47 48 48 47 47 46 46 46 46 46 46 44 43 43 43 41 39 37 36 36 37 36 35 35 35 34 34 32 30 27
32 33 33 33 31 30 31 31 32 35 37 36 36 36 37 39 37 34 32 32 35 36 37 39 35 27 26 29 29 17 6 6 5 8 18 32 39 39 44 48 48 47 47 45 43 41 40 38 37 37 39 40 42 43 41 40 42 42 43 46 49 49 47 45 45 45 45 45 45 43 41 41 40 40 39 37 34 34 35 35 34 34 34 35 34 32 30 27
30 32 33 33 33 31 31 31 32 34 36 36 37 38 38 40 40 35 32 31 30 30 31 34 32 26 23 27 28 21 9 7 7 8 19 33 39 39 43 48 47 47 46 43 41 39 39 38 36 36 37 37 37 37 38 38 38 39 40 42 46 48 47 46 45 45 45 45 44 43 41 40 39 37 37 36 34 32 33 34 34 34 35 35 34 31 29 27
29 30 32 33 33 32 31 31 32 32 34 35 36 36 37 41 41 37 35 34 28 24 27 31 29 24 22 25 26 22 13 9 9 11 22 35 39 39 43 47 47 47 46 42 39 38 37 36 35 34 34 32 31 33 35 37 38 39 40 41 43 45 45 45 45 44 44 44 43 42 41 39 37 35 34 35 34 32 33 35 35 36 36 35 32 30 27 26
29 29 31 32 33 32 30 30 30 30 31 33 34 34 34 38 40 38 38 37 31 25 25 28 28 25 24 25 25 22 17 12 10 13 26 37 40 40 42 45 46 46 43 40 37 36 34 33 33 32 31 30 30 31 35 39 40 41 41 42 42 43 44 45 45 44 43 43 42 41 40 38 36 33 32 33 32 31 33 34 35 36 36 34 31 29 27 27
30 27 28 30 32 32 31 29 28 29 29 30 32 33 32 34 37 36 35 35 32 27 25 26 27 25 25 26 25 22 19 16 11 14 29 38 40 40 43 45 45 43 39 37 35 33 30 30 31 30 30 31 31 34 38 41 42 43 42 42 43 44 45 45 44 44 43 43 41 40 39 35 32 31 30 30 30 30 31 32 34 36 35 32 30 29 28 27
33 29 27 28 30 32 32 30 28 27 28 29 31 33 33 32 33 34 32 30 28 26 24 25 25 23 23 25 24 22 21 18 12 15 30 39 40 40 42 44 42 39 38 35 33 31 28 28 30 29 28 29 29 32 36 38 40 41 42 43 43 43 44 45 44 44 43 41 40 39 36 32 29 27 25 26 27 26 28 31 32 34 33 31 30 29 27 27
35 32 29 27 28 31 32 31 28 27 28 29 31 33 33 31 30 31 30 28 27 26 24 24 24 21 21 22 21 20 19 20 14 13 29 37 39 40 41 40 38 36 36 34 30 30 28 26 28 28 26 27 27 28 30 32 35 36 38 40 41 42 43 44 44 42 40 39 39 36 33 30 27 23 18 19 22 23 25 28 30 31 30 30 30 28 27 27
35 34 32 29 27 29 31 31 30 28 27 29 30 31 31 30 29 29 28 27 26 24 23 22 22 21 22 22 19 16 15 19 16 12 26 34 36 39 39 38 36 34 34 32 29 28 27 25 25 26 25 24 25 25 28 31 34 35 36 37 39 41 43 43 42 41 39 40 38 34 31 29 26 21 18 17 20 22 23 26 28 29 30 31 31 29 28 28
35 34 33 31 28 27 29 31 30 28 26 28 29 29 28 26 26 28 28 26 24 21 20 21 21 22 22 20 17 13 12 15 15 12 20 30 34 35 36 37 36 34 32 31 28 27 26 23 22 24 24 24 24 25 28 30 33 35 36 37 37 39 40 41 40 40 40 40 38 34 32 30 27 23 21 21 22 23 24 24 26 28 30 31 30 30 30 29
35 33 32 31 29 26 26 28 30 28 26 25 26 27 26 23 24 27 27 25 22 20 18 19 22 24 21 17 14 12 11 12 10 11 15 24 30 32 32 33 34 33 30 28 27 27 24 20 19 21 23 24 24 26 27 28 29 31 34 36 38 38 39 39 39 39 40 39 36 34 35 34 31 26 22 22 23 24 25 24 25 26 27 28 29 30 29 27
38 35 33 32 30 27 26 26 28 28 26 23 22 23 23 21 22 24 25 24 21 17 15 16 20 21 18 14 11 9 9 10 8 12 15 21 28 30 29 29 29 29 28 27 26 25 22 19 18 19 21 23 24 25 24 24 26 29 33 36 38 39 40 39 39 39 39 38 36 36 37 35 30 25 23 22 23 24 25 25 24 24 24 24 24 23 22 23
38 35 33 32 31 29 26 25 26 27 27 24 22 23 24 22 20 22 23 22 18 13 13 16 19 19 16 13 10 8 9 10 12 16 17 21 26 27 26 25 25 25 26 25 25 23 21 19 19 19 19 21 22 22 21 23 26 29 32 34 36 38 39 38 38 38 37 37 37 36 34 30 25 24 24 23 22 22 23 23 22 20 19 18 17 17 20 24
Wind_Direction
284 283 283 282 282 281 280 279 278 276 275 274 272 271 270 268 267 265 263 261 259 256 255 253 252 252 251 250 249 247 245 244 243 242 240 239 239 238 237 237 236 236 236 234 233 232 230 229 228 226 226 227 228 228 229 231 232 233 233 233 234 234 234 234 235 237 238 239 238 235 234 230 228 231 235 236 236 236 235 236 238 242 246 249 251 255 257 258
288 287 287 286 285 284 283 281 280 278 276 275 273 272 270 269 267 266 264 262 260 258 256 254 253 251 250 250 249 248 247 245 244 243 242 240 239 238 237 237 236 236 235 235 233 232 231 230 229 228 226 226 226 227 228 230 230 231 232 232 233 233 234 235 236 237 238 239 239 238 235 233 232 232 234 236 236 237 237 238 239 241 244 247 249 252 255 258
293 292 291 289 288 286 285 283 281 280 278 276 274 273 271 269 267 266 264 263 261 259 257 255 254 252 250 249 249 248 248 247 245 243 242 241 240 239 238 237 236 236 235 234 234 233 232 231 230 229 228 226 225 226 227 228 229 230 231 232 232 233 234 235 236 236 237 238 238 238 236 234 233 234 234 235 237 237 237 239 241 242 243 246 249 251 254 257
296 295 293 291 290 288 287 285 284 282 280 278 276 274 272 270 268 266 264 263 261 260 258 256 254 252 251 250 248 247 247 247 246 244 243 242 240 239 238 237 236 236 235 234 233 233 232 232 230 230 229 228 227 225 226 227 228 229 230 231 232 233 234 234 235 236 237 238 238 237 235 234 233 234 235 235 237 238 238 240 242 244 244 246 250 252 255 258
298 296 295 294 292 291 290 288 287 286 284 282 280 278 275 273 271 268 266 264 262 261 259 257 254 252 251 250 249 247 246 246 246 245 243 242 241 239 238 237 237 236 235 235 234 232 232 232 231 230 230 229 228 227 226 226 227 228 229 231 232 233 233 234 234 236 237 237 237 236 235 235 235 235 236 236 237 238 239 240 243 245 247 249 251 255 258 261
300 299 298 297 296 295 294 293 292 291 290 288 286 284 282 279 277 274 272 269 267 264 262 259 257 254 252 250 249 248 247 246 245 244 243 243 242 240 238 237 237 236 236 235 234 233 232 232 232 231 230 230 230 229 228 227 227 228 229 230 232 233 233 233 233 235 236 236 237 236 235 235 235 236 237 238 239 240 240 241 244 246 248 252 254 256 258 260
304 303 302 301 300 299 299 298 297 296 295 293 291 289 287 285 282 280 277 275 273 270 267 264 261 258 255 253 250 248 248 247 245 243 242 242 241 240 239 237 236 236 236 235 234 233 232 232 232 232 231 231 230 230 229 229 228 229 230 230 231 232 233 233 233 234 235 236 237 236 234 235 235 236 237 238 239 241 241 241 244 247 248 251 255 257 258 260
308 307 306 305 304 303 302 301 300 299 297 296 294 292 291 288 287 285 282 280 277 274 272 268 266 263 260 257 253 250 250 249 245 243 241 241 241 240 239 237 236 235 235 235 234 233 233 232 232 232 231 231 231 230 230 230 229 229 230 230 231 232 232 232 232 232 233 234 236 235 234 234 235 236 237 238 239 241 242 242 243 247 249 250 253 256 259 261
311 310 309 307 306 305 305 304 303 302 300 299 298 296 295 293 291 289 287 285 281 278 274 271 269 266 263 261 257 254 254 251 247 243 241 240 240 239 239 237 236 235 234 234 234 233 233 232 232 232 231 231 231 230 230 230 230 230 230 231 232 232 232 232 231 231 232 233 235 235 234 234 234 235 237 238 239 241 243 243 243 245 249 251 252 254 257 260
314 312 311 310 309 308 307 306 305 304 303 302 300 298 297 296 294 292 289 286 283 279 276 273 271 269 267 264 260 258 256 253 249 246 243 240 239 238 237 237 236 235 234 233 233 233 232 232 232 232 231 231 231 230 230 230 230 230 231 231 231 233 232 232 231 231 231 232 233 234 234 234 234 235 236 236 238 241 243 244 244 243 247 250 252 253 255 257
315 314 312 312 311 310 309 309 308 307 305 303 301 299 298 297 296 294 291 288 284 280 277 273 271 269 268 266 264 260 258 254 251 249 246 242 239 237 236 235 235 234 233 232 232 232 232 231 231 231 231 231 231 231 230 230 230 230 230 231 231 232 233 231 230 230 231 231 232 233 234 235 234 234 235 236 237 240 242 244 245 243 245 248 251 253 254 256
316 315 314 313 312 312 311 311 310 308 306 304 302 300 300 300 299 298 295 291 287 282 279 275 270 268 268 268 266 261 258 255 253 250 248 244 241 238 236 235 234 233 232 231 231 231 231 230 230 230 230 230 230 231 230 230 230 230 230 231 230 231 232 231 229 228 229 230 230 232 234 234 233 234 235 237 238 239 241 244 245 245 244 246 249 252 254 256
318 317 316 315 314 314 313 312 311 310 308 306 304 303 302 302 301 300 297 294 290 285 280 275 271 269 269 270 265 259 256 254 253 251 248 246 243 240 237 235 233 232 230 230 230 230 229 229 229 229 229 229 229 230 230 230 230 230 231 231 231 231 231 230 229 228 227 228 228 230 233 232 232 234 235 238 239 239 240 243 245 245 245 246 247 250 253 256
321 320 318 316 316 315 314 313 312 312 310 308 305 303 302 301 301 301 299 295 290 285 280 273 270 269 271 271 263 256 254 251 251 250 248 245 242 240 237 235 233 231 229 228 228 228 228 228 228 228 228 228 228 228 228 229 229 230 231 231 231 231 231 230 229 228 226 227 226 227 231 231 231 234 234 236 238 239 240 242 244 245 246 246 247 249 253 256
323 321 318 318 318 317 316 315 314 313 312 309 307 305 303 302 303 302 300 295 289 284 278 270 266 266 268 267 261 257 255 251 249 248 247 245 241 239 236 234 232 230 228 227 226 226 226 226 226 226 226 226 226 226 227 227 227 228 229 230 230 231 232 230 228 228 226 226 225 225 229 231 230 232 233 235 237 238 239 240 242 245 246 247 248 249 252 255
324 321 319 319 319 318 317 317 316 315 313 311 309 307 306 305 305 304 300 294 287 281 276 269 264 262 264 263 261 261 259 254 250 246 245 243 241 238 235 232 231 229 227 226 225 224 224 224 224 224 224 224 224 224 225 225 225 226 228 229 229 230 232 230 228 228 227 226 224 224 227 230 229 230 232 233 236 237 238 239 241 244 246 247 249 249 251 253
323 320 319 320 320 318 318 318 317 316 315 313 312 310 309 308 308 307 302 294 286 279 275 271 267 264 262 262 263 264 261 256 252 246 243 241 240 238 234 231 229 227 225 224 223 222 222 222 223 223 223 223 223 222 223 224 224 225 226 227 228 229 231 231 228 227 227 226 224 223 226 229 227 228 230 232 234 237 238 239 241 243 245 247 249 249 250 251
322 319 319 321 320 319 320 320 319 318 317 315 314 313 312 312 312 311 305 295 285 278 275 272 270 266 264 265 266 266 264 262 258 251 244 240 238 237 234 230 228 226 224 223 221 220 219 220 220 220 221 221 221 221 222 224 225 225 225 226 227 227 229 229 227 226 226 227 225 223 226 228 227 227 229 230 231 235 237 238 240 242 243 245 246 246 246 248
322 319 320 322 321 320 321 321 321 321 319 318 317 316 316 315 314 312 306 296 286 278 274 272 270 268 268 269 270 270 270 272 271 260 248 240 235 234 233 230 227 225 224 222 220 219 218 218 218 219 220 221 222 223 224 225 225 224 225 226 227 228 229 229 228 226 225 226 226 225 226 229 228 228 229 230 231 233 235 236 238 239 239 240 240 240 240 242
323 320 321 322 321 321 322 323 324 324 322 322 320 319 318 317 315 314 310 300 288 281 276 273 271 270 272 274 275 275 277 282 280 265 250 240 234 231 230 228 226 224 223 221 219 218 217 216 217 219 220 222 223 223 223 223 223 223 223 224 226 228 229 230 229 228 226 226 226 226 226 229 229 228 228 229 230 231 232 234 235 236 235 235 236 236 236 236
324 322 322 323 323 324 325 326 327 326 326 325 323 321 320 319 318 318 314 304 292 285 280 276 273 272 274 278 280 279 283 288 284 269 249 236 230 228 226 226 225 223 221 220 218 217 216 216 216 217 218 219 220 219 219 220 221 222 222 223 225 226 227 228 227 227 226 225 226 226 226 228 228 228 227 228 228 229 230 232 233 234 233 233 234 233 232 231
324 322 323 325 326 328 329 331 331 330 330 329 326 323 321 321 320 320 318 310 296 288 283 280 276 274 277 280 281 282 286 290 285 271 252 233 225 222 222 223 223 221 219 218 216 215 214 214 213 214 214 215 216 216 217 218 220 220 220 222 223 224 226 226 224 223 224 224 224 225 226 227 227 227 226 227 227 227 227 227 229 230 229 231 232 232 229 227
325 324 325 328 329 331 334 336 335 334 334 332 329 326 325 324 322 323 323 315 301 292 288 285 283 282 283 282 280 283 289 292 285 270 254 234 221 216 215 218 219 218 217 216 215 214 213 211 210 211 212 212 213 213 214 215 218 219 218 220 222 223 224 225 223 220 221 222 222 223 225 225 225 225 225 224 224 224 222 222 223 224 225 227 228 226 221 223
327 326 328 331 332 335 337 339 338 337 337 335 332 330 331 330 327 328 329 322 305 295 290 288 289 286 284 283 283 287 294 297 287 265 253 240 223 213 208 211 214 215 215 215 214 213 212 210 209 208 209 210 210 211 211 213 216 217 217 219 221 221 222 224 222 218 219 221 221 221 223 224 223 223 223 222 223 222 220 220 220 221 222 224 225 220 218 223
330 328 331 334 336 338 340 342 341 340 340 339 337 335 336 336 333 333 337 334 316 301 295 292 291 287 285 285 286 292 302 301 285 259 248 241 227 213 204 204 208 211 212 212 211 210 209 209 208 207 207 208 209 209 209 211 214 215 215 216 218 219 220 222 219 215 216 219 219 219 221 222 221 222 222 222 222 222 220 219 219 221 222 223 221 216 218 224
332 331 334 337 339 342 343 344 343 342 343 344 343 341 340 340 338 338 343 343 329 313 306 300 296 292 288 286 288 297 308 307 288 260 246 239 228 213 203 199 201 206 207 208 209 207 206 206 205 205 206 207 208 208 208 209 212 214 213 214 216 218 218 219 217 213 213 217 218 219 221 221 221 221 222 221 222 222 221 219 219 220 221 220 217 213 219 223
335 334 337 339 342 345 346 345 344 344 347 350 349 347 346 345 343 341 344 344 337 326 316 308 303 299 292 288 293 300 308 313 297 263 245 236 225 211 202 197 196 200 203 204 206 204 204 204 202 202 204 205 206 207 207 208 210 211 211 213 215 216 217 217 214 211 212 215 216 217 220 221 221 222 222 221 222 221 220 219 218 218 219 218 214 213 219 220
339 338 339 342 345 347 348 347 346 347 349 353 354 353 351 350 348 345 344 344 341 335 327 318 311 303 294 291 296 299 306 314 303 265 245 235 222 208 200 194 191 194 198 201 203 202 202 203 201 200 201 202 203 205 206 207 209 209 209 212 213 213 215 214 211 208 210 213 215 215 216 219 220 220 221 221 222 222 220 219 218 218 219 217 211 215 219 219
342 342 343 345 346 349 350 349 349 350 350 353 356 358 356 354 354 352 350 348 343 339 334 328 320 307 296 294 299 300 304 312 305 268 245 235 217 203 198 193 189 190 194 197 199 199 200 201 200 198 199 200 200 201 203 205 207 206 206 210 212 212 212 211 209 206 208 212 214 214 215 217 219 218 219 220 220 221 219 218 219 219 219 216 211 216 220 218
344 344 346 347 348 350 351 351 352 353 352 352 355 358 359 356 356 358 359 357 350 341 335 328 323 314 301 297 301 303 303 307 306 275 242 229 210 198 194 191 188 188 191 192 195 197 197 198 198 196 196 198 198 200 201 202 204 204 204 207 210 210 210 208 205 204 207 211 213 213 214 218 220 218 218 220 220 221 221 219 220 220 219 217 215 219 222 221
345 346 348 349 350 352 352 351 353 355 355 354 354 356 359 358 356 359 1 1 358 350 340 328 321 314 304 298 297 300 300 301 304 282 238 217 202 193 191 190 188 187 188 190 193 194 194 196 196 193 194 197 197 198 199 200 202 201 201 205 207 208 208 205 202 202 206 210 212 212 213 217 220 217 217 221 221 221 221 220 220 220 220 219 219 222 225 224
347 348 350 351 351 352 353 352 352 355 357 357 354 352 354 357 359 0 359 360 1 358 352 343 332 318 306 302 297 297 298 294 298 286 237 206 194 190 189 189 188 186 186 188 191 193 193 195 194 191 193 195 195 196 197 199 201 199 198 202 205 206 206 203 201 202 206 210 211 210 212 216 218 215 215 219 220 219 219 218 217 218 218 219 220 223 226 225
348 350 351 352 352 351 352 353 353 355 358 359 357 352 350 352 358 1 0 0 359 355 354 355 350 336 320 310 303 298 297 286 287 285 237 199 187 187 188 189 187 185 185 186 190 192 192 193 192 190 192 193 193 195 196 197 199 198 198 202 205 206 206 204 202 204 207 211 210 208 212 215 216 215 214 216 218 218 217 215 213 214 215 216 215 217 219 220
350 351 352 352 352 350 351 354 355 355 357 359 359 356 354 354 355 357 358 359 358 354 350 351 355 349 336 325 313 303 294 277 275 280 231 196 184 183 188 189 186 184 184 186 189 191 191 192 192 189 190 191 191 193 195 196 198 198 197 202 206 208 208 206 203 203 206 211 210 207 211 214 215 215 214 214 216 216 214 212 210 211 212 212 209 207 210 215
351 351 352 351 351 350 351 354 356 356 357 359 359 358 0 1 360 358 356 353 354 354 350 346 351 353 346 336 322 306 289 267 263 270 219 193 183 181 186 188 185 184 185 186 188 188 188 191 191 189 189 191 190 192 194 196 198 198 196 199 205 207 209 207 204 204 207 211 210 207 210 214 214 214 213 212 214 214 212 209 208 209 211 213 213 210 212 217
352 351 350 350 351 350 350 354 358 358 358 358 358 359 1 3 3 2 359 353 351 351 350 348 349 354 355 345 327 307 283 259 254 258 204 188 181 180 184 187 184 184 185 186 187 186 186 189 191 190 191 191 191 193 194 195 196 197 196 199 202 205 207 206 205 206 208 211 212 208 210 214 216 216 212 211 212 212 211 208 208 209 211 214 215 214 217 222
351 351 349 350 351 350 349 353 357 359 360 358 357 358 359 360 1 1 0 357 352 350 350 351 351 355 1 358 342 318 288 259 240 231 192 184 181 180 183 185 184 185 185 184 185 185 185 188 190 190 191 192 192 193 195 195 195 195 195 197 200 203 204 203 204 207 208 211 213 210 210 214 217 217 213 210 211 211 209 207 207 208 211 214 215 217 221 225
349 350 350 349 350 350 349 353 357 358 359 359 357 358 357 358 0 2 2 1 357 352 349 351 354 355 2 7 358 338 334 56 225 217 187 181 181 181 183 184 183 184 185 183 184 184 184 187 188 189 191 192 194 194 193 194 194 194 195 196 199 202 203 202 203 206 208 211 213 211 211 214 217 217 214 210 211 211 209 207 206 207 209 211 214 219 223 224
347 350 350 348 348 348 349 354 355 353 356 358 357 358 357 356 358 1 2 3 3 358 353 353 355 351 358 9 8 355 67 111 185 198 181 180 181 181 183 183 183 184 184 183 183 184 184 186 187 189 190 191 194 195 193 192 192 193 193 194 198 203 204 204 204 206 207 210 214 212 211 214 217 218 216 212 211 210 209 208 207 207 209 210 214 220 224 224
347 349 349 347 346 347 349 353 352 349 354 358 358 358 358 356 356 358 359 1 3 3 358 357 356 349 352 6 11 9 69 108 152 182 177 179 180 180 182 182 183 184 184 183 183 183 185 185 185 188 190 190 193 194 193 193 194 193 192 191 195 202 205 205 205 207 208 210 213 214 213 214 217 219 219 217 212 209 209 208 207 208 208 209 214 220 224 224
346 347 347 347 347 347 348 352 352 350 353 359 359 0 0 358 356 355 356 359 2 2 359 358 358 351 348 1 11 15 51 96 121 175 178 177 178 179 181 182 183 184 184 183 182 183 185 186 185 187 189 190 193 193 192 194 195 195 195 192 193 198 203 204 206 207 209 211 213 213 213 214 217 219 221 220 214 209 209 208 207 207 207 209 213 219 223 224
343 344 345 347 348 347 347 351 354 353 355 0 2 3 4 1 358 356 355 358 0 360 359 360 1 359 352 356 8 18 40 94 118 168 176 175 176 177 180 182 183 184 184 182 181 183 185 186 186 187 188 189 191 191 191 193 195 196 197 197 197 198 200 203 205 207 209 212 213 214 214 215 217 218 219 221 215 208 207 207 206 205 205 207 212 216 219 222
340 342 346 347 348 349 349 351 354 356 358 3 5 5 3 1 1 1 359 359 358 357 1 3 3 4 359 356 6 20 37 85 123 165 174 172 174 176 179 182 183 184 183 181 181 183 185 186 187 188 187 187 188 189 190 192 193 194 195 196 199 201 203 203 205 207 211 213 214 215 216 217 219 219 219 220 215 207 206 207 206 204 205 207 209 211 214 218
342 341 345 346 347 349 351 351 354 358 0 2 6 7 3 1 5 7 6 7 5 1 4 5 2 5 7 4 11 22 35 68 111 163 172 170 172 175 178 181 183 183 181 180 181 182 184 187 189 188 186 185 185 187 190 191 192 192 193 194 197 201 206 207 206 206 209 213 215 217 218 219 222 221 219 219 214 206 206 208 206 205 206 205 205 207 210 217
348 344 344 345 347 349 351 353 354 357 0 1 3 6 4 4 8 11 14 17 14 9 9 7 7 11 10 9 17 26 36 58 94 158 170 169 171 174 177 181 182 182 180 180 181 182 183 187 190 190 189 188 188 189 191 192 192 191 192 194 196 200 205 208 208 207 208 210 213 216 219 220 223 224 221 218 213 205 205 207 206 206 207 205 203 205 210 219
352 348 344 344 347 349 351 354 355 355 358 360 1 5 6 6 9 12 16 18 14 10 11 10 14 17 10 10 20 27 38 56 83 150 167 169 170 173 177 180 181 180 179 179 180 181 184 188 191 191 190 190 191 195 195 195 194 193 192 194 196 200 204 207 209 209 209 210 212 214 218 219 220 223 222 218 212 204 202 205 206 207 207 205 204 206 212 218
352 351 346 344 347 350 351 353 355 354 356 358 1 5 6 5 8 13 16 16 13 13 15 16 17 17 12 13 18 22 38 56 72 144 167 169 170 173 177 178 179 179 178 177 177 180 185 189 192 192 192 193 194 196 198 197 196 195 195 196 197 200 204 206 208 209 209 212 213 213 215 216 216 215 213 211 206 200 198 201 203 205 205 205 206 207 209 211
351 351 349 346 346 349 350 351 354 356 355 357 2 7 6 3 6 13 15 17 17 17 18 17 15 14 15 18 20 20 32 49 63 130 167 170 171 175 177 177 177 178 178 176 175 180 186 191 194 196 198 198 196 196 197 197 197 196 197 199 200 201 204 206 207 208 209 211 213 211 211 211 207 199 190 189 190 188 191 196 199 201 202 204 205 204 204 207
351 350 350 348 344 346 349 351 353 356 356 356 360 5 8 5 6 11 14 17 19 20 19 18 18 16 12 16 29 34 26 37 60 111 163 173 174 175 177 178 178 178 178 177 175 181 187 191 197 201 202 202 199 199 200 198 197 197 197 198 201 204 207 207 207 208 209 211 211 208 207 205 199 190 182 183 184 180 183 192 196 198 201 204 205 205 208 212
351 349 349 349 345 344 347 350 352 355 358 359 360 3 9 11 10 10 12 13 17 21 20 16 20 21 14 12 31 42 25 25 60 107 153 172 174 173 175 179 181 179 178 178 180 184 186 189 197 204 205 205 203 203 203 201 199 199 198 199 200 204 207 208 208 208 210 212 209 205 206 204 198 190 184 186 189 182 179 186 193 197 201 204 207 210 213 216
351 349 347 348 348 344 343 348 352 353 357 0 359 1 9 17 14 9 10 13 14 20 24 14 13 18 17 17 32 45 34 34 76 118 145 166 171 171 172 175 178 178 177 178 183 185 184 186 196 203 206 206 205 205 204 201 200 201 201 200 201 203 205 207 209 210 211 211 209 206 206 204 200 194 188 188 192 188 182 183 189 194 198 202 207 210 214 219
351 349 345 344 347 346 341 343 348 352 355 358 359 359 5 15 16 8 9 16 20 28 35 25 19 18 14 15 32 50 56 70 99 119 137 155 162 163 164 166 170 173 174 178 181 180 182 191 200 205 207 206 205 203 199 199 201 202 201 201 203 205 206 206 208 210 212 212 211 208 204 201 199 195 190 190 194 193 190 188 189 193 198 205 210 214 223 228